Regional Weather Roundup
Issued by NWS Mt. Holly, NJ

Current Version | Previous Version | Text Only | Print | Product List | Glossary Off
Versions: 1 2 3 4 5 6 7 8 9 10 11 12 13 14 15 16 17 18 19 20 21 22 23 24 25 26 27

000
ASUS41 KPHI 310910
RWRPHI

REGIONAL WEATHER ROUNDUP
NATIONAL WEATHER SERVICE MOUNT HOLLY NJ
500 AM EDT FRI OCT 31 2014

NOTE:  "FAIR" INDICATES FEW OR NO CLOUDS BELOW 12,000 FEET WITH NO
SIGNIFICANT WEATHER AND/OR OBSTRUCTIONS TO VISIBILITY.

 * = STATION DOES NOT REPORT PRECIPITATION (E.G. RAIN, SNOW, ETC.)
        OR FOG.

NJZ015>026-311000-
SOUTHERN NEW JERSEY

CITY           SKY/WX    TMP DP  RH WIND       PRES   REMARKS
POMONA         CLEAR     35  32  88 NW5       30.00S WCI  31
RIO GRANDE*    CLEAR     41  30  65 N3        30.01R
MILLVILLE      CLEAR     35  32  88 CALM      30.01R
WRIGHTSTOWN    CLEAR     39  32  77 N5        29.99R
MOUNT HOLLY    CLEAR     33  31  92 CALM      30.01S
TRENTON        CLEAR     36  32  85 NW6       30.01R WCI  31

$$
NJZ001>014-311000-
NORTHERN NEW JERSEY

CITY           SKY/WX    TMP DP  RH WIND       PRES   REMARKS
SUSSEX         CLEAR     30  26  85 CALM      30.02S
ANDOVER*         N/A     31  30  96 CALM      30.02S
MORRISTOWN     CLEAR     32  30  93 CALM      30.02S
NEWARK         MOCLDY    42  36  79 N6        30.01S
TETERBORO      CLEAR     40  34  79 CALM      30.00F
CALDWELL       CLEAR     34  31  88 CALM      30.02F
SOMERVILLE     CLEAR     30  27  88 CALM      30.01R
ALLAIRE*       CLEAR     37  28  70 NW6       29.99S WCI  33
TOMS RIVER*    CLEAR     28  27  93 CALM      30.00S

$$
PAZ043-044-047-054-055-060>062-066>071-311000-
EASTERN PENNSYLVANIA

CITY           SKY/WX    TMP DP  RH WIND       PRES   REMARKS
PHILADELPHIA   PTCLDY    42  33  70 N5        30.02S
NORTH PHILA    CLEAR     39  30  70 NW7       30.03S WCI  34
BLUE BELL      CLEAR     34  32  93 CALM      30.01S
DOYLESTOWN     CLEAR     36  32  85 N3        30.01S
QUAKERTOWN*    CLEAR     28  28 100 CALM      30.02S
POTTSTOWN      CLEAR     32  29  88 CALM      30.03S
LANCASTER      CLOUDY    45  36  70 CALM      30.01S
COATESVILLE    CLEAR     41  32  70 CALM      30.01S
READING        CLEAR     35  32  88 N5        30.01F WCI  31
ALLENTOWN      CLEAR     35  31  85 W3        30.02F
MOUNT POCONO   CLEAR     26  23  88 CALM      29.98S
HAZLETON       MOCLDY    28  28 100 CALM      30.02S
WILKES BARRE   CLEAR     31  28  89 S3        30.01S

$$
DEZALL-MDZ008-012-015-019-020-311000-
DELAWARE AND EASTERN MARYLAND

CITY           SKY/WX    TMP DP  RH WIND       PRES   REMARKS
WILMINGTON     PTCLDY    41  35  79 CALM      30.02S
DOVER          CLOUDY    39  37  94 N5        29.99R
GEORGETOWN     CLEAR     39  35  86 CALM      30.00S
EASTON         CLOUDY    44  44 100 CALM      30.04S
PATUXENT       CLEAR     47  39  74 E6        30.00S
OCEAN CITY     CLEAR     39  38  96 NW5       29.99R
WALLOPS ISLAND CLEAR     44  39  82 N6        29.99R
CAMBRIDGE      PTCLDY    41  36  81 CALM      30.00R
SALISBURY      CLEAR     44  37  76 CALM      29.99S

$$
PAZ001-021-NYZ056-072-MDZ011-DCZ001-311000-
OTHER NEARBY LOCATIONS

CITY           SKY/WX    TMP DP  RH WIND       PRES   REMARKS
HARRISBURG     CLOUDY    47  36  65 NE3       30.01S
STATE COLLEGE  CLOUDY    40  37  88 CALM      29.99F
WILLIAMSPORT   CLOUDY    36  31  82 CALM      30.02F
BINGHAMTON     CLEAR     33  30  88 SW3       29.98F
NEW YORK CITY  PTCLDY    45  33  63 NE8       30.03S
BALTIMORE      MOCLDY    47  41  80 CALM      30.00F
WASHINGTON DC  PTCLDY    48  39  71 NE5       30.02S

$$



USA.gov is the U.S. government's official web portal to all federal, state and local government web resources and services.